Terminal Aerodrome Forecast
Issued by NWS

Home | Current Version | Previous Version | Text Only | Print | Product List | Glossary On
Versions: 1 2 3 4 5 6 7 8 9 10 11 12
444
FTUS44 KTSA 261737
TAFMLC
TAF
KMLC 261737Z 2618/2718 VRB03KT P6SM BKN045 BKN120
     FM270600 VRB03KT P6SM FEW040 BKN150
      TEMPO 2709/2712 SCT010 BKN020
     FM271200 01005KT P6SM SCT007 BKN012 PROB30 2712/2718 4SM -RA
      BKN010=

USA.gov is the U.S. government's official web portal to all federal, state and local government web resources and services.